Wilmington, OH

8:30 PM EST on February 05, 2016 (GMT -0500)
Airborne

Weather History for KILN - August, 2014

Change the Weather History Date:

Tuesday, August 19, 2014

  Actual Average (KDAY) Record (KDAY)
Temperature  
Mean Temperature 75 °F 73 °F  
Max Temperature 86 °F 83 °F 102 °F (1936)
Min Temperature 64 °F 63 °F 51 °F (1964)
Degree Days  
Heating Degree Days 0 0  
Month to date heating degree days 0  
Since 1 June heating degree days 22  
Since 1 July heating degree days 0  
Cooling Degree Days 10 8  
Month to date cooling degree days 158  
Year to date cooling degree days 697  
Since 1 June cooling degree days 627  
Growing Degree Days 25 (Base 50)    
Moisture  
Dew Point 66 °F    
Average Humidity 84    
Maximum Humidity 97    
Minimum Humidity 56    
Precipitation  
Precipitation 0.00 in 0.10 in 0.64 in (2009)
Month to date precipitation 1.81  
Year to date precipitation 27.13  
Snow  
Snow 0.00 in 0.00 in 0.00 in ()
Month to date snowfall 0.0  
Since 1 June snowfall 0.0  
Since 1 July snowfall 0.0  
Snow Depth -    
Sea Level Pressure  
Sea Level Pressure 29.83 in    
Wind  
Wind Speed 3 mph (South)    
Max Wind Speed 12 mph    
Max Gust Speed -    
Visibility 4 miles    
Events Fog    
T = Trace of Precipitation, MM = Missing Value Source: NWS Daily Summary

Daily Weather History Graph

Daily Weather History Graph

Search for Another Location

Airport or City:

Trip Planner

Search our weather history database for the weather conditions in past years. The results will help you decide how hot, cold, wet, or windy it might be!

Date:

Astronomy

Aug. 19, 2014 Rise Set
Actual Time 6:51 AM EDT 8:25 PM EDT
Civil Twilight 6:23 AM EDT 8:53 PM EDT
Nautical Twilight 5:48 AM EDT 9:27 PM EDT
Astronomical Twilight 5:12 AM EDT 10:03 PM EDT
Moon 1:43 AM EDT (8/19) 4:20 PM EDT (8/19)
Length of Visible Light 14h 30m
Length of Day
13h 33m
Waning Crescent, 29% of the Moon is Illuminated
Aug 19
Waning Crescent
Aug 25
New
Sep 2
First Quarter
Sep 8
Full
Sep 15
Last Quarter

Hourly Weather History & Observations

Time (EDT) Temp. Heat Index Dew Point Humidity Pressure Visibility Wind Dir Wind Speed Gust Speed Precip Events Conditions
12:54 AM 66.0 °F - 64.0 °F 93% 29.82 in 3.0 mi Calm Calm - N/A   Clear
1:35 AM 64.9 °F - 63.0 °F 93% 29.85 in 2.5 mi NE 4.6 mph - N/A   Clear
1:54 AM 64.0 °F - 63.0 °F 96% 29.82 in 2.0 mi Calm Calm - N/A   Clear
2:02 AM 64.0 °F - 62.1 °F 93% 29.84 in 1.5 mi ENE 3.5 mph - N/A   Clear
2:11 AM 66.9 °F - 64.0 °F 90% 29.84 in 3.0 mi ENE 3.5 mph - N/A   Clear
2:42 AM 66.0 °F - 63.0 °F 90% 29.83 in 2.5 mi Calm Calm - N/A   Clear
2:54 AM 64.9 °F - 63.0 °F 93% 29.81 in 2.5 mi Calm Calm - N/A   Partly Cloudy
3:20 AM 66.0 °F - 64.0 °F 93% 29.83 in 3.0 mi ENE 4.6 mph - N/A   Mostly Cloudy
3:54 AM 66.9 °F - 64.9 °F 93% 29.80 in 3.0 mi ESE 3.5 mph - N/A   Overcast
4:05 AM 66.0 °F - 64.0 °F 93% 29.83 in 2.5 mi SE 4.6 mph - N/A   Mostly Cloudy
4:32 AM 64.9 °F - 64.0 °F 97% 29.83 in 1.5 mi Calm Calm - N/A   Clear
4:50 AM 64.4 °F - 62.6 °F 94% 29.82 in 2.0 mi ESE 3.5 mph - N/A   Clear
4:54 AM 64.9 °F - 63.0 °F 93% 29.80 in 1.8 mi ESE 3.5 mph - N/A   Clear
5:07 AM 66.0 °F - 63.0 °F 90% 29.83 in 2.5 mi East 3.5 mph - N/A   Clear
5:21 AM 64.9 °F - 63.0 °F 93% 29.83 in 0.8 mi Calm Calm - N/A   Clear
5:28 AM 64.9 °F - 63.0 °F 93% 29.83 in 0.5 mi Calm Calm - N/A Fog Fog
5:33 AM 66.0 °F - 64.0 °F 93% 29.83 in 1.5 mi Calm Calm - N/A   Partly Cloudy
5:49 AM 64.4 °F - 62.6 °F 94% 29.84 in 2.0 mi Calm Calm - N/A   Partly Cloudy
5:54 AM 64.0 °F - 63.0 °F 96% 29.81 in 1.2 mi East 3.5 mph - N/A   Clear
6:49 AM 64.4 °F - 62.6 °F 94% 29.84 in 0.8 mi Calm Calm - N/A   Clear
6:54 AM 64.9 °F - 63.0 °F 93% 29.81 in 0.2 mi Calm Calm - N/A Fog Fog
7:54 AM 64.9 °F - 64.0 °F 97% 29.84 in 0.2 mi Calm Calm - N/A Fog Fog
8:15 AM 66.9 °F - 64.9 °F 93% 29.87 in 0.5 mi Calm Calm - N/A Fog Fog
8:22 AM 66.9 °F - 66.0 °F 97% 29.87 in 0.2 mi SSW 3.5 mph - N/A Fog Fog
8:54 AM 68.0 °F - 66.9 °F 96% 29.85 in 0.2 mi South 3.5 mph - N/A Fog Fog
9:23 AM 70.0 °F - 69.1 °F 97% 29.87 in 1.0 mi WSW 4.6 mph - N/A   Mostly Cloudy
9:35 AM 71.1 °F - 69.1 °F 93% 29.87 in 2.0 mi SSW 3.5 mph - N/A   Scattered Clouds
9:52 AM 75.2 °F - 69.8 °F 83% 29.87 in 3.0 mi SW 4.6 mph - N/A   Haze
9:54 AM 75.0 °F - 70.0 °F 84% 29.85 in 3.0 mi SW 4.6 mph - N/A   Haze
10:54 AM 78.1 °F - 70.0 °F 76% 29.85 in 5.0 mi WSW 5.8 mph - N/A   Haze
11:45 AM 80.1 °F 83.2 °F 70.0 °F 71% 29.88 in 7.0 mi West 8.1 mph - N/A   Mostly Cloudy
11:54 AM 79.0 °F - 69.1 °F 72% 29.85 in 7.0 mi WSW 5.8 mph - N/A   Mostly Cloudy
12:04 PM 79.0 °F - 70.0 °F 74% 29.87 in 7.0 mi WSW 6.9 mph - N/A   Scattered Clouds
12:54 PM 82.0 °F 85.5 °F 69.1 °F 65% 29.84 in 8.0 mi SSW 10.4 mph - N/A   Clear
1:54 PM 82.9 °F 85.8 °F 68.0 °F 60% 29.83 in 9.0 mi WSW 5.8 mph - N/A   Partly Cloudy
2:54 PM 84.0 °F 86.5 °F 66.9 °F 56% 29.82 in 8.0 mi SSW 10.4 mph - N/A   Mostly Cloudy
3:54 PM 84.0 °F 87.8 °F 69.1 °F 61% 29.80 in 8.0 mi SSW 11.5 mph - N/A   Scattered Clouds
4:54 PM 86.0 °F 90.1 °F 69.1 °F 57% 29.79 in 8.0 mi SSW 9.2 mph - N/A   Partly Cloudy
5:54 PM 84.0 °F 87.0 °F 68.0 °F 58% 29.80 in 8.0 mi SW 11.5 mph - N/A   Clear
6:54 PM 84.0 °F 86.5 °F 66.9 °F 56% 29.79 in 8.0 mi SW 6.9 mph - N/A   Clear
7:54 PM 80.1 °F 82.9 °F 69.1 °F 69% 29.81 in 7.0 mi South 3.5 mph - N/A   Clear
8:54 PM 75.0 °F - 69.1 °F 82% 29.81 in 7.0 mi Calm Calm - N/A   Partly Cloudy
9:54 PM 73.9 °F - 68.0 °F 82% 29.83 in 7.0 mi SSW 5.8 mph - N/A   Partly Cloudy
10:54 PM 73.9 °F - 66.9 °F 79% 29.83 in 7.0 mi Calm Calm - N/A   Clear
11:54 PM 73.0 °F - 66.9 °F 81% 29.83 in 6.0 mi South 4.6 mph - N/A   Haze